Location: Arleux
(50.3632°N, 2.8721°E)
Time: 06:23:35
(UTC+00:00)

NOSS 3-2 (A) - Pass Details

Date: 15 December 2019
Orbit: 814 x 1394 km, 63.4° (Epoch: 07 January)

Event Time Altitude Azimuth Distance (km) Brightness Sun altitude
Rises 05:27:51 0° 202° (SSW) 3,391 6.2 -20.1°
Reaches altitude 10° 05:30:14 10° 198° (SSW) 2,503 5.6 -19.7°
Maximum altitude 05:35:49 53° 123° (ESE) 1,143 4.2 -18.9°
Drops below altitude 10° 05:42:11 10° 49° (NE) 2,842 6.4 -17.9°
Sets 05:45:03 0° 45° (NE) 3,892 7.0 -17.4°
